Location: Moscow
(55.7500°N, 37.5830°E)
Time: 17:45:39
(UTC+03:00)

A-11 Canister half - Pass Details

Date: 06 December 2021
Orbit: 1516 x 1684 km, 47.2° (Epoch: 19 January)

Event Time Altitude Azimuth Distance (km) Brightness Sun altitude
Rises 09:34:34 0° 255° (WSW) 4,803 11.4 4.2°
Reaches altitude 10° 09:37:42 10° 251° (WSW) 3,841 10.9 4.4°
Maximum altitude 09:47:07 53° 178° (S) 1,963 10.2 5.2°
Drops below altitude 10° 09:56:47 10° 106° (ESE) 3,940 12.0 6.0°
Sets 10:00:04 0° 102° (ESE) 4,935 12.4 6.2°
